Time,TemperatureF,DewpointF,PressureIn,WindDirection,WindDirectionDegrees,WindSpeedMPH,WindSpeedGustMPH,Humidity,HourlyPrecipIn,Conditions,Clouds,dailyrainin,SoftwareType,DateUTC
2013-07-22 00:00:00,51.0,-99.9,-100.00,North,-999,-999.0,-999.0,-999,-99.99,,,0.01,,2013-07-22 06:00:00,
2013-07-22 00:52:00,51.0,-99.9,-100.00,North,-999,-999.0,-999.0,-999,-99.99,,,0.01,,2013-07-22 06:52:00,
2013-07-22 01:00:00,51.0,-99.9,-100.00,North,-999,-999.0,-999.0,-999,-99.99,,,0.01,,2013-07-22 07:00:00,
2013-07-22 01:53:00,51.0,-99.9,-100.00,North,-999,-999.0,-999.0,-999,-99.99,,,0.01,,2013-07-22 07:53:00,
2013-07-22 02:00:00,50.0,-99.9,-100.00,North,-999,-999.0,-999.0,-999,-99.99,,,0.01,,2013-07-22 08:00:00,
2013-07-22 02:52:00,50.0,-99.9,-100.00,North,-999,-999.0,-999.0,-999,-99.99,,,0.01,,2013-07-22 08:52:00,
2013-07-22 03:00:00,50.0,-99.9,-100.00,North,-999,-999.0,-999.0,-999,-99.99,,,0.01,,2013-07-22 09:00:00,
2013-07-22 03:52:00,50.0,-99.9,-100.00,North,-999,-999.0,-999.0,-999,-99.99,,,0.01,,2013-07-22 09:52:00,
2013-07-22 04:00:00,49.0,-99.9,-100.00,North,-999,-999.0,-999.0,-999,-99.99,,,0.01,,2013-07-22 10:00:00,
2013-07-22 04:53:00,49.0,-99.9,-100.00,North,-999,-999.0,-999.0,-999,-99.99,,,0.01,,2013-07-22 10:53:00,
2013-07-22 05:00:00,50.0,-99.9,-100.00,North,-999,-999.0,-999.0,-999,-99.99,,,0.01,,2013-07-22 11:00:00,
2013-07-22 05:52:00,50.0,-99.9,-100.00,North,-999,-999.0,-999.0,-999,-99.99,,,0.01,,2013-07-22 11:52:00,
2013-07-22 06:00:00,49.0,-99.9,-100.00,North,-999,-999.0,-999.0,-999,-99.99,,,0.02,,2013-07-22 12:00:00,
2013-07-22 06:53:00,49.0,-99.9,-100.00,North,-999,-999.0,-999.0,-999,-99.99,,,0.02,,2013-07-22 12:53:00,
2013-07-22 07:00:00,52.0,-99.9,-100.00,North,-999,-999.0,-999.0,-999,-99.99,,,-99.99,,2013-07-22 13:00:00,
2013-07-22 08:00:00,56.0,-99.9,-100.00,North,-999,-999.0,-999.0,-999,-99.99,,,0.01,,2013-07-22 14:00:00,
2013-07-22 08:53:00,56.0,-99.9,-100.00,North,-999,-999.0,-999.0,-999,-99.99,,,0.01,,2013-07-22 14:53:00,
2013-07-22 09:00:00,60.0,-99.9,-100.00,North,-999,-999.0,-999.0,-999,-99.99,,,0.01,,2013-07-22 15:00:00,
2013-07-22 09:52:00,60.0,-99.9,-100.00,North,-999,-999.0,-999.0,-999,-99.99,,,0.01,,2013-07-22 15:52:00,
2013-07-22 10:00:00,63.0,-99.9,-100.00,North,-999,-999.0,-999.0,-999,-99.99,,,0.01,,2013-07-22 16:00:00,
2013-07-22 11:00:00,66.0,-99.9,-100.00,North,-999,-999.0,-999.0,-999,-99.99,,,0.02,,2013-07-22 17:00:00,
2013-07-22 11:52:00,66.0,-99.9,-100.00,North,-999,-999.0,-999.0,-999,-99.99,,,0.02,,2013-07-22 17:52:00,
2013-07-22 12:00:00,67.0,-99.9,-100.00,North,-999,-999.0,-999.0,-999,-99.99,,,0.01,,2013-07-22 18:00:00,
2013-07-22 13:00:00,64.0,-99.9,-100.00,North,-999,-999.0,-999.0,-999,-99.99,,,0.02,,2013-07-22 19:00:00,
2013-07-22 14:00:00,59.0,-99.9,-100.00,North,-999,-999.0,-999.0,-999,-99.99,,,0.00,,2013-07-22 20:00:00,
2013-07-22 14:53:00,59.0,-99.9,-100.00,North,-999,-999.0,-999.0,-999,-99.99,,,0.00,,2013-07-22 20:53:00,
2013-07-22 15:00:00,54.0,-99.9,-100.00,North,-999,-999.0,-999.0,-999,-99.99,,,0.00,,2013-07-22 21:00:00,
2013-07-22 15:53:00,54.0,-99.9,-100.00,North,-999,-999.0,-999.0,-999,-99.99,,,0.00,,2013-07-22 21:53:00,
2013-07-22 16:00:00,57.0,-99.9,-100.00,North,-999,-999.0,-999.0,-999,-99.99,,,0.00,,2013-07-22 22:00:00,
2013-07-22 16:53:00,57.0,-99.9,-100.00,North,-999,-999.0,-999.0,-999,-99.99,,,0.00,,2013-07-22 22:53:00,
2013-07-22 17:00:00,60.0,-99.9,-100.00,North,-999,-999.0,-999.0,-999,-99.99,,,0.00,,2013-07-22 23:00:00,
2013-07-22 18:00:00,63.0,-99.9,-100.00,North,-999,-999.0,-999.0,-999,-99.99,,,0.00,,2013-07-23 00:00:00,
2013-07-22 18:52:00,63.0,-99.9,-100.00,North,-999,-999.0,-999.0,-999,-99.99,,,0.00,,2013-07-23 00:52:00,
2013-07-22 19:00:00,60.0,-99.9,-100.00,North,-999,-999.0,-999.0,-999,-99.99,,,0.00,,2013-07-23 01:00:00,
2013-07-22 19:44:00,60.0,-99.9,-100.00,North,-999,-999.0,-999.0,-999,-99.99,,,0.00,,2013-07-23 01:44:00,
2013-07-22 19:53:00,60.0,-99.9,-100.00,North,-999,-999.0,-999.0,-999,-99.99,,,0.00,,2013-07-23 01:53:00,
2013-07-22 20:00:00,59.0,-99.9,-100.00,North,-999,-999.0,-999.0,-999,-99.99,,,0.00,,2013-07-23 02:00:00,
2013-07-22 20:53:00,59.0,-99.9,-100.00,North,-999,-999.0,-999.0,-999,-99.99,,,0.00,,2013-07-23 02:53:00,
2013-07-22 21:00:00,57.0,-99.9,-100.00,North,-999,-999.0,-999.0,-999,-99.99,,,0.00,,2013-07-23 03:00:00,
2013-07-22 21:52:00,57.0,-99.9,-100.00,North,-999,-999.0,-999.0,-999,-99.99,,,0.00,,2013-07-23 03:52:00,
2013-07-22 22:00:00,56.0,-99.9,-100.00,North,-999,-999.0,-999.0,-999,-99.99,,,0.00,,2013-07-23 04:00:00,
2013-07-22 22:53:00,56.0,-99.9,-100.00,North,-999,-999.0,-999.0,-999,-99.99,,,0.00,,2013-07-23 04:53:00,
2013-07-22 23:00:00,56.0,-99.9,-100.00,North,-999,-999.0,-999.0,-999,-99.99,,,0.00,,2013-07-23 05:00:00,
2013-07-22 23:52:00,56.0,-99.9,-100.00,North,-999,-999.0,-999.0,-999,-99.99,,,0.00,,2013-07-23 05:52:00,